[[{"header":{"parameterUnit":"m.s-1","parameterCategory":1,"la1":30.2991,"la2":30.254,"lo1":-89.0895,"lo2":-89.0444,"dy":0.0017,"dx":0.0017,"nx":28,"ny":28,"refTime":"2024-03-10T09:00:00:Z","depth":0,"parameterNumber":2,"parameterNumberName":"U-component_of_WINDS"},"data":[0,0,0,0,0,0,0,0,0,0,0,0,0,0,0,0,0,0,0,0,0,0,0,0,0,0,0,0,0,0,0,0,0,0,0,0,0,0,0,0,0,0,0,0,0,0,0,0,0,0,0,0,0,0,0,0,0,0,-5.4091,-5.4091,0,-5.41,-5.41,-5.41,-5.398,-5.3977,-5.3973,-5.397,-5.3979,-5.3982,-5.3986,0,0,0,0,0,0,0,0,0,0,0,0,0,-5.3971,-5.3974,-5.4091,-5.4091,-5.4091,-5.41,-5.41,-5.41,-5.398,-5.3976,-5.3972,-5.3969,-5.3978,-5.3982,-5.3986,0,0,0,0,0,0,0,0,0,0,0,0,0,-5.4006,-5.3975,-5.4091,-5.4033,-5.4028,-5.41,-5.41,-5.41,-5.3981,-5.3976,-5.3971,-5.3967,-5.3977,-5.3982,-5.3987,-5.4115,0,0,-5.4002,-5.4004,0,0,0,0,0,0,0,0,-5.4004,-5.4011,-5.4041,-5.4037,-5.4031,-5.4034,-5.4061,-5.4105,-5.3982,-5.3999,-5.397,-5.3964,-5.4001,-5.4004,-5.4016,-5.4116,-5.4116,-5.4002,-5.4005,-5.4007,-5.4009,0,0,0,0,0,0,0,-5.4002,-5.401,-5.4094,-5.4042,-5.4036,-5.4006,-5.4006,-5.4069,-5.4028,-5.3997,-5.3988,-5.3991,-5.3998,-5.4012,-5.4016,-5.4116,-5.4002,-5.4006,-5.4009,-5.4011,-5.4322,-5.4327,0,0,0,0,0,0,-5.4008,-5.4008,-5.4094,-5.4095,-5.4005,-5.4012,-5.4012,-5.4038,-5.4026,-5.402,-5.3995,-5.3985,-5.4006,-5.401,-5.4016,-5.4165,-5.4007,-5.4012,-5.4015,-5.4316,-5.4323,-5.4328,0,0,0,0,0,0,-5.4006,-5.4016,-5.4094,-5.4049,-5.4057,-5.402,-5.405,-5.4041,-5.4055,-5.4025,-5.4017,-5.4017,-5.4002,-5.4009,-5.4091,-5.4164,-5.4014,-5.4018,-5.431,-5.4318,-5.4326,-5.4467,0,0,0,0,0,0,-5.4003,-5.4016,-5.4065,-5.4051,-5.406,-5.417,-5.4054,-5.4044,-5.4063,-5.4051,-5.4044,-5.4038,-5.3999,-5.4085,-5.4096,-5.4168,-5.4022,-5.4303,-5.4314,-5.4323,-5.4456,-5.4479,-5.4498,0,0,0,0,0,-5.3999,-5.4104,-5.4068,-5.4079,-5.4119,-5.4174,-5.4179,-5.4132,-5.407,-5.4118,-5.4099,-5.4038,-5.4154,-5.4094,-5.4106,-5.4181,-5.4299,-5.4311,-5.4322,-5.4446,-5.4474,-5.4498,0,0,0,0,0,0,-5.4127,-5.4101,-5.4061,-5.4165,-5.4173,-5.4154,-5.4213,-5.4163,-5.4189,-5.4176,-5.4116,-5.4116,-5.4209,-5.4203,-5.4136,-5.4305,-5.4215,-5.423,-5.4305,-5.4332,-5.4353,-5.4352,-5.4026,0,0,0,0,0,-5.4168,-5.4214,-5.4189,-5.4283,-5.4289,-5.4251,-5.4273,-5.4236,-5.4242,-5.4245,-5.4232,-5.424,-5.4278,-5.4304,-5.4338,-5.4454,-5.4451,-5.4511,-5.4533,-5.455,-5.4564,-5.4625,-5.4652,-5.4367,-5.4367,-5.4367,0,0,-5.4252,-5.4243,-5.4276,-5.4309,-5.4311,-5.4361,-5.4255,-5.4312,-5.4348,-5.4253,-5.4331,-5.4322,-5.4327,-5.4427,-5.447,-5.4425,-5.4642,-5.4566,-5.458,-5.4584,-5.464,-5.4667,-5.4691,-5.4376,-5.4374,-5.4373,0,0,-5.443,-5.4429,-5.4507,-5.4511,-5.4515,-5.4489,-5.4508,-5.4497,-5.4488,-5.4564,-5.4494,-5.4537,-5.4604,-5.461,-5.4623,-5.4805,-5.4749,-5.4817,-5.4929,-5.499,-5.5012,-5.5032,-5.5097,-5.5121,-5.4831,-5.4831,-5.4831,0,-5.4534,-5.4606,-5.4554,-5.4616,-5.4633,-5.4549,-5.4628,-5.4635,-5.465,-5.4663,-5.4612,-5.4695,-5.4692,-5.4793,-5.4838,-5.485,-5.487,-5.4818,-5.5013,-5.5032,-5.505,-5.5112,-5.5136,-5.4839,-5.4839,-5.4838,-5.4837,0,-5.4734,-5.4785,-5.4848,-5.4865,-5.4889,-5.4959,-5.4918,-5.4948,-5.4909,-5.4889,-5.4969,-5.4963,-5.4994,-5.5015,-5.4977,-5.5111,-5.5082,-5.5024,-5.4932,-5.5086,-5.5143,-5.5166,-5.4851,-5.4848,-5.4846,-5.4844,0,0,-5.4994,-5.4981,-5.5005,-5.5012,-5.501,-5.5049,-5.5116,-5.5146,-5.5174,-5.5187,-5.5242,-5.5301,-5.5246,-5.526,-5.5223,-5.5276,-5.5421,-5.521,-5.5209,-5.525,-5.5568,-5.5613,-5.5641,-5.5384,-5.5389,-5.5392,-5.5568,0,-5.5167,-5.5281,-5.5236,-5.5353,-5.54,-5.5322,-5.538,-5.5386,-5.5369,-5.5406,-5.5387,-5.543,-5.5354,-5.5362,-5.5411,-5.5393,-5.5484,-5.538,-5.5435,-5.5438,-5.5437,-5.567,-5.5718,-5.5884,-5.559,-5.5593,-5.5596,0,-5.5385,-5.5408,-5.553,-5.5521,-5.5539,-5.5592,-5.5617,-5.5653,-5.5658,-5.5642,-5.5658,-5.5609,-5.5674,-5.5584,-5.5673,-5.5603,-5.5623,-5.5618,-5.5623,-5.5627,-5.5526,-5.5681,-5.5935,-5.5961,-5.563,-5.5628,-5.5625,0,-5.5563,-5.5624,-5.5705,-5.5713,-5.5704,-5.5744,-5.5742,-5.5742,-5.5763,-5.5785,-5.5798,-5.5827,-5.5843,-5.5867,-5.5827,-5.5765,-5.5922,-5.5828,-5.5911,-5.5912,-5.5948,-5.5946,-5.621,-5.5961,-5.596,-5.596,-5.5959,0,-5.5762,-5.584,-5.5785,-5.5835,-5.592,-5.5867,-5.5953,-5.5942,-5.5943,-5.599,-5.5924,-5.5969,-5.5914,-5.5954,-5.5924,-5.6002,-5.601,-5.5999,-5.599,-5.6005,-5.6007,-5.6017,-5.6005,-5.5966,-5.5965,-5.5964,-5.5963,0,-5.5975,-5.5941,-5.6024,-5.6009,-5.6007,-5.6071,-5.6058,-5.6103,-5.6082,-5.6142,-5.6153,-5.6119,-5.6163,-5.6125,-5.6168,-5.6147,-5.6252,-5.6226,-5.625,-5.6243,-5.6328,-5.6321,-5.6608,-5.6643,-5.6372,-5.6375,-5.6377,0,-5.6104,-5.6162,-5.6154,-5.618,-5.6183,-5.6226,-5.6248,-5.6199,-5.6224,-5.6234,-5.6279,-5.6317,-5.6345,-5.6419,-5.6398,-5.643,-5.6405,-5.6504,-5.641,-5.6423,-5.6407,-5.6404,-5.641,-5.6523,-5.6526,-5.6529,-5.6531,0,-5.6338,-5.6318,-5.6352,-5.638,-5.6408,-5.6428,-5.6442,-5.6468,-5.6417,-5.6449,-5.6493,-5.6515,-5.6558,-5.6597,-5.6623,-5.6621,-5.6568,-5.6561,-5.6581,-5.6598,-5.6609,-5.6604,-5.6303,-5.6554,-5.6552,-5.655,-5.6549,-5.6548,-5.6512,-5.6561,-5.6563,-5.6602,-5.6608,-5.6624,-5.6666,-5.665,-5.6686,-5.6717,-5.6686,-5.674,-5.6743,-5.6772,-5.6777,-5.6818,-5.6777,-5.6807,-5.6815,-5.6823,-5.6835,-5.6603,-5.6822,-5.6822,-5.6821,-5.682,-5.682,0,-5.6743,-5.674,-5.6777,-5.68,-5.6832,-5.6779,-5.6793,-5.6823,-5.6871,-5.6879,-5.6908,-5.6959,-5.6996,-5.6979,-5.7012,-5.7048,-5.7025,-5.7058,-5.7055,-5.7056,-5.687,-5.6849,-5.7077,-5.7077,-5.7077,-5.7077,-5.7076,-5.7076,-5.6866,-5.6945,-5.6926,-5.7007,-5.7004,-5.7056,-5.7068,-5.7082,-5.7088,-5.7148,-5.7179,-5.7167,-5.7165,-5.7198,-5.723,-5.7224,-5.7239,-5.7282,-5.7267,-5.7094,-5.7069,-5.7045,-5.7024,-5.7285,-5.7286,-5.7449,-5.7451,-5.7452]},{"header":{"parameterUnit":"m.s-1","parameterCategory":1,"la1":30.2991,"la2":30.254,"lo1":-89.0895,"lo2":-89.0444,"dy":0.0017,"dx":0.0017,"nx":28,"ny":28,"refTime":"2024-03-10T09:00:00:Z","depth":0,"parameterNumber":3,"parameterNumberName":"V-component_of_WINDS"},"data":[0,0,0,0,0,0,0,0,0,0,0,0,0,0,0,0,0,0,0,0,0,0,0,0,0,0,0,0,0,0,0,0,0,0,0,0,0,0,0,0,0,0,0,0,0,0,0,0,0,0,0,0,0,0,0,0,0,0,-2.4004,-2.4004,0,-2.4039,-2.4039,-2.404,-2.4016,-2.4015,-2.4014,-2.4013,-2.4048,-2.405,-2.4052,0,0,0,0,0,0,0,0,0,0,0,0,0,-2.3914,-2.3916,-2.4004,-2.4004,-2.4005,-2.4039,-2.4039,-2.404,-2.4017,-2.4015,-2.4014,-2.4013,-2.4047,-2.405,-2.4052,0,0,0,0,0,0,0,0,0,0,0,0,0,-2.3951,-2.3916,-2.4004,-2.3997,-2.3997,-2.4039,-2.404,-2.404,-2.4017,-2.4015,-2.4014,-2.4012,-2.4047,-2.4049,-2.4052,-2.4102,0,0,-2.4061,-2.4062,0,0,0,0,0,0,0,0,-2.3949,-2.3955,-2.3998,-2.3998,-2.3998,-2.4022,-2.402,-2.4061,-2.4017,-2.4009,-2.4013,-2.4011,-2.4041,-2.4044,-2.4054,-2.4104,-2.4105,-2.4061,-2.4063,-2.4064,-2.4065,0,0,0,0,0,0,0,-2.3947,-2.3953,-2.4018,-2.3998,-2.3998,-2.3992,-2.3995,-2.4028,-2.4033,-2.401,-2.4008,-2.4013,-2.404,-2.4051,-2.4055,-2.4106,-2.4061,-2.4064,-2.4066,-2.4067,-2.4197,-2.4199,0,0,0,0,0,0,-2.3945,-2.3951,-2.4017,-2.4019,-2.3969,-2.3995,-2.3999,-2.4016,-2.4033,-2.4034,-2.4014,-2.4012,-2.4047,-2.4051,-2.4056,-2.4114,-2.4064,-2.4067,-2.4069,-2.4195,-2.4197,-2.4199,0,0,0,0,0,0,-2.3943,-2.3951,-2.4015,-2.3984,-2.3992,-2.3998,-2.4017,-2.4017,-2.4028,-2.4036,-2.4037,-2.4025,-2.4046,-2.4052,-2.4091,-2.4115,-2.4068,-2.4071,-2.4193,-2.4196,-2.4198,-2.4233,0,0,0,0,0,0,-2.3941,-2.3951,-2.397,-2.3985,-2.3994,-2.405,-2.4019,-2.4019,-2.4033,-2.403,-2.4046,-2.4047,-2.4045,-2.4086,-2.4093,-2.4118,-2.4073,-2.4191,-2.4194,-2.4197,-2.4229,-2.4236,-2.4242,0,0,0,0,0,-2.3938,-2.3978,-2.3971,-2.3979,-2.4019,-2.4052,-2.4057,-2.4054,-2.4035,-2.4055,-2.406,-2.4047,-2.4111,-2.4091,-2.4098,-2.4124,-2.4189,-2.4193,-2.4197,-2.4226,-2.4235,-2.4242,0,0,0,0,0,0,-2.3966,-2.398,-2.3973,-2.402,-2.4035,-2.4048,-2.4072,-2.4063,-2.4083,-2.4079,-2.4074,-2.4078,-2.4119,-2.4125,-2.4102,-2.4173,-2.4147,-2.4153,-2.4167,-2.4175,-2.4181,-2.4178,-2.4076,0,0,0,0,0,-2.3978,-2.4004,-2.4015,-2.4055,-2.4063,-2.4066,-2.4081,-2.4077,-2.4092,-2.4098,-2.4106,-2.4121,-2.4144,-2.416,-2.4182,-2.423,-2.4233,-2.4252,-2.4258,-2.4263,-2.4268,-2.4292,-2.4301,-2.4212,-2.4212,-2.4212,0,0,-2.4002,-2.4013,-2.403,-2.4061,-2.4072,-2.4099,-2.4072,-2.4101,-2.4121,-2.4103,-2.414,-2.4146,-2.4162,-2.4206,-2.4225,-2.4212,-2.4293,-2.4268,-2.4272,-2.4274,-2.4297,-2.4306,-2.4313,-2.4215,-2.4214,-2.4214,0,0,-2.406,-2.4072,-2.4106,-2.4118,-2.4135,-2.4137,-2.4145,-2.416,-2.4163,-2.42,-2.4187,-2.421,-2.4251,-2.4262,-2.4273,-2.4335,-2.4323,-2.4342,-2.4375,-2.4399,-2.4406,-2.4412,-2.4433,-2.4441,-2.4347,-2.4347,-2.4347,0,-2.4088,-2.4128,-2.4125,-2.4155,-2.4168,-2.4154,-2.4188,-2.4199,-2.4223,-2.4232,-2.4218,-2.4268,-2.4278,-2.4323,-2.4338,-2.4348,-2.4357,-2.434,-2.4405,-2.4411,-2.4417,-2.4437,-2.4445,-2.4349,-2.4349,-2.4349,-2.4349,0,-2.4161,-2.4189,-2.4215,-2.4238,-2.4254,-2.4287,-2.4287,-2.4304,-2.4299,-2.4302,-2.4339,-2.435,-2.4374,-2.4385,-2.438,-2.4429,-2.4421,-2.4406,-2.438,-2.4428,-2.4446,-2.4454,-2.4352,-2.4352,-2.4351,-2.435,0,0,-2.4238,-2.4259,-2.4268,-2.4278,-2.4296,-2.4317,-2.4348,-2.4371,-2.4385,-2.4402,-2.4427,-2.4462,-2.4448,-2.4461,-2.4457,-2.4478,-2.4525,-2.4461,-2.4461,-2.4472,-2.4579,-2.4589,-2.4598,-2.4518,-2.4519,-2.452,-2.4577,0,-2.4296,-2.4351,-2.4348,-2.4399,-2.4424,-2.441,-2.4437,-2.445,-2.4453,-2.4474,-2.4478,-2.4502,-2.4483,-2.449,-2.4511,-2.4515,-2.4546,-2.4511,-2.454,-2.4541,-2.4536,-2.4608,-2.4619,-2.4672,-2.4584,-2.4586,-2.4586,0,-2.4372,-2.4391,-2.4444,-2.4458,-2.4468,-2.4492,-2.4513,-2.4534,-2.4548,-2.4549,-2.4563,-2.4555,-2.4585,-2.4559,-2.46,-2.4576,-2.4588,-2.4592,-2.4594,-2.4596,-2.4566,-2.4611,-2.4689,-2.4697,-2.4598,-2.4597,-2.4596,0,-2.4421,-2.4461,-2.4497,-2.4506,-2.4523,-2.454,-2.4548,-2.456,-2.4574,-2.4592,-2.4601,-2.4622,-2.4634,-2.465,-2.4648,-2.4629,-2.4689,-2.4663,-2.469,-2.469,-2.4703,-2.4702,-2.4783,-2.4712,-2.4711,-2.4711,-2.4711,0,-2.4486,-2.4519,-2.452,-2.4542,-2.4578,-2.4575,-2.461,-2.4616,-2.4627,-2.465,-2.4639,-2.466,-2.4657,-2.4678,-2.4676,-2.471,-2.4715,-2.4716,-2.4715,-2.4717,-2.4717,-2.4724,-2.472,-2.4713,-2.4713,-2.4712,-2.4712,0,-2.4548,-2.455,-2.4589,-2.4601,-2.4605,-2.4631,-2.4641,-2.4662,-2.4664,-2.4693,-2.4699,-2.4702,-2.4727,-2.4726,-2.4754,-2.4753,-2.4794,-2.4789,-2.4789,-2.4788,-2.4814,-2.4812,-2.4903,-2.4914,-2.4836,-2.4837,-2.4837,0,-2.4589,-2.4614,-2.4629,-2.4644,-2.4652,-2.4676,-2.469,-2.4687,-2.4702,-2.472,-2.4738,-2.4761,-2.478,-2.4819,-2.4823,-2.4844,-2.4839,-2.4869,-2.4842,-2.4842,-2.4838,-2.4837,-2.4839,-2.4875,-2.4876,-2.4876,-2.4877,0,-2.4661,-2.4661,-2.4682,-2.4703,-2.472,-2.4737,-2.4752,-2.4764,-2.4763,-2.478,-2.4805,-2.4819,-2.4847,-2.487,-2.4889,-2.4896,-2.4886,-2.4886,-2.4893,-2.4894,-2.4893,-2.4893,-2.4803,-2.4883,-2.4883,-2.4882,-2.4882,-2.4882,-2.4713,-2.4734,-2.4748,-2.4772,-2.4783,-2.4797,-2.4817,-2.4822,-2.4842,-2.4865,-2.4862,-2.4889,-2.4902,-2.4927,-2.4936,-2.4957,-2.4946,-2.4956,-2.4959,-2.4961,-2.4964,-2.489,-2.496,-2.496,-2.496,-2.496,-2.496,0,-2.4784,-2.4792,-2.4814,-2.4835,-2.4854,-2.4843,-2.4859,-2.4875,-2.4899,-2.4912,-2.493,-2.4958,-2.498,-2.4986,-2.5007,-2.5022,-2.5018,-2.5028,-2.5026,-2.5028,-2.4973,-2.4964,-2.5031,-2.5031,-2.5031,-2.5031,-2.5031,-2.5031,-2.4823,-2.4858,-2.4859,-2.4899,-2.4906,-2.4933,-2.4943,-2.4956,-2.4966,-2.4998,-2.5016,-2.502,-2.503,-2.5051,-2.5071,-2.5072,-2.5079,-2.5091,-2.509,-2.5039,-2.5032,-2.5025,-2.5017,-2.5093,-2.5093,-2.5143,-2.5143,-2.5144]}]]